Regional Weather Roundup
Issued by NWS

Home | Current Version | Previous Version | Graphics & Text | Print | Product List | Glossary On
Versions: 1 2 3 4 5 6 7 8 9 10 11 12 13 14 15 16 17 18 19 20 21 22 23 24 25 26 27 28 29 30 31 32 33 34 35 36 37 38 39 40 41 42 43 44 45 46 47 48 49 50
000
ASUS43 KMKX 290221
RWRWI

WISCONSIN REGIONAL WEATHER ROUNDUP
NATIONAL WEATHER SERVICE MILWAUKEE/SULLIVAN WI
900 PM CDT TUE JUL 28 2015

NOTE: "FAIR" INDICATES FEW OR NO CLOUDS BELOW 12,000 FEET WITH NO
SIGNIFICANT WEATHER AND/OR OBSTRUCTIONS TO VISIBILITY.

WIZ001-002-006>008-014>016-023>028-290300-
NORTHWEST WISCONSIN

CITY           SKY/WX    TMP DP  RH WIND       PRES   REMARKS
SUPERIOR ARPT  CLOUDY    76  70  81 SW8       29.76R
ASHLAND        CLOUDY    80  71  74 S7        29.79S HX  84
HAYWARD        CLOUDY    78  70  76 S6        29.83S HX  80
SIREN          HVY RAIN  75  70  84 SW13      29.83R
CUMBERLAND     CLOUDY    75  70  83 S7        29.84S
RICE LAKE      CLOUDY    77  71  81 S6        29.85F
CHETEK         CLOUDY    76  74  95 CALM      29.84F
LADYSMITH      CLOUDY    79  72  79 SE5       29.87S HX  82
EAU CLAIRE     LGT RAIN  77  73  87 SW9       29.84S
MENOMONIE      CLOUDY    81  72  74 SW9       29.85S HX  84
NEW RICHMOND   CLOUDY    78  71  79 SW7       29.84S
OSCEOLA        CLOUDY    79  66  64 W16       29.86R HX  81
$$

WIZ003>005-009-010-017-018-290300-
NORTH CENTRAL WISCONSIN

CITY           SKY/WX    TMP DP  RH WIND       PRES   REMARKS
MANITOWISH WTR CLOUDY    76  70  82 S8        29.88S
ARBOR VITAE    CLOUDY    77  70  78 S7        29.89S
WOODRUFF       CLOUDY    77  70  78 S7        29.89S
RHINELANDER    MOCLDY    77  68  73 S8        29.91S
EAGLE RIVER    MOCLDY    75  65  70 S5        29.90S
LAND O LAKES   MOCLDY    76  66  71 S5        29.91S
PHILLIPS       CLOUDY    76  70  81 S7        29.87S
TOMAHAWK       PTCLDY    73  68  82 CALM      29.90F
MEDFORD        PTCLDY    72  70  94 S6        29.89F
MERRILL        NOT AVBL
$$

WIZ029-030-035-036-043>047-290300-
CENTRAL WISCONSIN

CITY           SKY/WX    TMP DP  RH WIND       PRES   REMARKS
WAUSAU         MOCLDY    78  70  76 S6        29.88S HX  80
MOSINEE        PTCLDY    75  72  88 SE6       29.91
MARSHFIELD     MOCLDY    77  69  76 S9        29.89F
STEVENS POINT  MOCLDY    77  68  74 SW7       29.90F
WAUPACA        MOCLDY    79  74  84 SE3       29.90S HX  82
WAUTOMA        MOCLDY    79  73  81 S5        29.91S HX  82
WISC RAPIDS    MOCLDY    76  68  76 SW6       29.90F
CAMP DOUGLAS   MOCLDY    77  77 100 S5        29.89F
$$

WIZ011>013-019>022-031-037>040-048>050-290300-
NORTHEAST WISCONSIN

CITY           SKY/WX    TMP DP  RH WIND       PRES   REMARKS
ANTIGO         CLOUDY    73  69  88 SE5       29.93S
SHAWANO        PTCLDY    78  67  68 S3        29.90S HX  80
OCONTO         PTCLDY    76  67  73 S5        29.90R
STURGEON BAY   CLEAR     73  63  68 S9        29.95R
GREEN BAY      PTCLDY    76  67  73 S6        29.91R
MANITOWOC      PTCLDY    73  66  78 MISG      29.93R
APPLETON       MOCLDY    79  64  61 S8        29.91S HX  81
CLINTONVILLE   MOCLDY    77  66  69 SE5       29.89S
OSHKOSH        PTCLDY    75  68  78 S7        29.91R
$$

WIZ032>034-041-042-053>061-290300-
SOUTHWEST WISCONSIN

CITY           SKY/WX    TMP DP  RH WIND       PRES   REMARKS
LA CROSSE      CLOUDY    80  70  71 S9        29.87S HX  83
SPARTA         MOCLDY    77  70  79 S3        29.89F
VIROQUA        CLOUDY    74  73  96 S6        29.92S
BOSCOBEL       CLOUDY    76  70  82 SW3       29.90S
PRAIRIE DU CHI CLOUDY    75  70  84 CALM      29.90R
PLATTEVILLE    CLOUDY    76  74  93 S3        29.92F
$$

WIZ056-057-062-063-064-067-068-290300-
SOUTH CENTRAL WISCONSIN

CITY           SKY/WX    TMP DP  RH WIND       PRES   REMARKS
REEDSBURG      MOCLDY    75  72  88 S3        29.91S
BARABOO/DELLS  MOCLDY    75  68  78 S3        29.92S
LONE ROCK      CLOUDY    77  73  87 CALM      29.90F
MINERAL POINT  CLOUDY    77  73  88 CALM      29.92F
MADISON        MOCLDY    81  71  71 VRB3      29.91S HX  85
MIDDLETON      PTCLDY    80  72  76 SW5       29.92F HX  83
WATERTOWN      MOCLDY    77  77 100 CALM      29.92S
MONROE         MOCLDY    77  72  83 S6        29.93F
JANESVILLE     PTCLDY    79  75  89 SW3       29.93R HX  82
$$

WIZ051-052-058>065-066-070>072-290300-
SOUTHEAST WISCONSIN

CITY           SKY/WX    TMP DP  RH WIND       PRES   REMARKS
MILWAUKEE      MOCLDY    78  67  68 SE7       29.93R HX  80
WAUKESHA       PTCLDY    79  70  73 S6        29.95R HX  81
MILWAUKEE/TIMM NOT AVBL
RACINE         CLEAR     79  67  66 S3        29.95R HX  81
BURLINGTON     PTCLDY    72  69  89 CALM      29.94S
KENOSHA        PTCLDY    80  69  69 S3        29.94R HX  83
FOND DU LAC    PTCLDY    76  70  82 S6        29.92R
SHEBOYGAN      CLEAR     73  66  78 S3        29.93R
WEST BEND      PTCLDY    75  66  73 CALM      29.94R
JUNEAU         MOCLDY    77  72  84 S6        29.94S
$$

LSZ147-162-290300-
LAKE SUPERIOR

STATION/POSITION TIME  TEMP    WIND        PRES    WAVE
                       AIR SEA DIR/SP/G            HT/PER
                 (UTC) (F)     (DEG/KT/KT) (MB)    (FT/S)
W MID LAKE BUOY  0150   69 62  170/ 10/ 12 1007.9R   1/ 3
DEVILS ISLAND    0200   80     180/  9/ 14 1007.0F
PORT WING        0100   82     170/  8/ 14 1007.5
SAXON HARBOR     0100   83                 1008.5R
$$

LMZ867-665-643>646-290300-
LAKE MICHIGAN

STATION/POSITION TIME  TEMP    WIND        PRES    WAVE
                       AIR SEA DIR/SP/G            HT/PER
                 (UTC) (F)     (DEG/KT/KT) (MB)    (FT/S)
CHAMBERS ISLAND  0100   78     150/  4/  9 1011.9F
S GREEN BAY BUOY 0100   79 76  160/ 14/ 16 1013.5F
N MID LAKE BUOY  0150   74 71  170/  8/ 10 1012.9S   0
NORTHPORT PIER   0100   75     150/  5/ 12 1012.5F
SISTER BAY       0144   75     190/ 11/ 14   N/A
ALGOMA LAKESHORE 0142          210/  8/  9   N/A
KEWAUNEE LAKESHO 0100   68     180/  7/  8 1012.3F
SHEBOYGAN LAKESH 0200   71     180/  8/  8 1013.5R
PORT WASHINGTON  0100   74     200/  2/  2 1013.5F
ATWATER BUOY     0100   72     120/  6/  8 1014.7R
MILWAUKEE LAKESH 0100   73     130/  7/  8   N/A
KENOSHA   LAKESH 0200   78     170/  5/  5 1013.2R
$$

TC  - TEMPERATURE IN CELSIUS
VSB - VISIBILITY IN STATUTE MILES
WCI - WIND CHILL INDEX
HX  - HEAT INDEX



USA.gov is the U.S. government's official web portal to all federal, state and local government web resources and services.